Temperature
16 16 16 16 16 16 16 16 16 15 15 15 15 15 15 15 14 14 14 14 14 14 14 14 14 14 14 13 13 13 13 13 12 12 12 12 12 12 12 12 11 11 11
16 16 16 16 16 16 16 15 15 15 15 15 15 14 14 14 14 14 14 14 14 14 14 14 13 13 13 13 13 13 12 12 12 12 12 12 11 11 11 11 11 11 11
16 16 16 16 16 16 15 15 15 15 14 14 14 14 14 14 14 14 14 14 14 14 14 13 13 13 13 12 12 12 12 12 12 11 11 11 11 11 11 11 11 11 10
15 15 15 16 15 15 15 15 15 14 14 14 14 14 14 14 14 14 14 14 14 13 13 13 13 13 12 12 12 12 12 11 11 11 11 11 11 11 10 10 10 10 10
15 15 15 15 15 15 15 14 14 14 14 14 14 14 14 14 14 14 14 14 14 13 13 13 12 12 12 12 12 11 11 11 11 11 11 11 10 10 10 10 10 10 10
14 14 15 15 15 14 14 14 14 14 14 13 13 13 14 14 14 14 14 14 13 13 13 12 12 12 12 12 11 11 11 11 11 11 11 10 10 10 10 10 10 10 9
15 14 14 14 14 14 14 14 14 13 13 13 13 13 13 14 14 14 14 14 13 13 13 12 12 12 12 11 11 11 11 10 10 10 10 10 10 10 10 9 9 9 9
14 14 14 14 14 14 14 14 13 13 13 13 12 12 12 13 14 14 13 13 13 13 12 12 12 12 11 11 11 10 10 10 10 10 10 10 10 9 9 9 9 9 9
14 14 14 14 14 14 14 14 14 13 13 13 12 12 12 12 12 13 13 13 12 12 12 12 12 11 11 11 10 10 10 10 10 9 9 9 9 9 9 9 9 9 8
14 14 14 14 14 14 14 14 13 13 13 13 12 12 12 12 11 11 12 12 12 12 11 11 11 11 11 10 10 10 9 9 9 9 9 9 9 9 9 9 8 8 8
14 14 14 14 14 13 13 13 13 13 12 12 12 12 12 11 11 11 11 11 11 11 11 11 10 10 10 10 9 9 9 9 9 9 8 8 8 8 8 8 8 8 8
14 14 14 13 13 13 13 13 13 12 12 12 12 11 11 11 11 11 10 11 11 10 10 10 10 10 9 9 9 9 8 8 8 8 8 8 8 8 8 8 8 8 8
14 14 13 13 13 13 13 13 12 12 12 12 11 11 11 10 10 10 10 10 9 9 9 9 9 9 9 9 8 8 8 8 8 7 7 7 7 7 7 7 7 7 7
13 13 13 13 13 12 12 12 12 12 12 11 11 11 10 10 10 10 9 9 9 8 8 8 8 8 8 8 8 8 7 7 7 7 6 6 6 6 6 6 6 6 6
13 13 13 12 12 12 12 12 11 11 11 11 10 10 10 10 10 9 9 9 8 8 8 8 7 7 7 7 7 7 7 6 6 6 6 6 6 5 5 5 5 5 5
12 12 12 12 12 12 11 11 11 11 10 10 10 10 9 9 9 9 8 8 8 7 7 7 7 6 6 6 6 6 6 6 5 5 5 5 5 5 5 5 5 5 5
11 11 11 11 11 11 11 10 10 10 10 9 9 9 9 8 8 8 8 8 7 7 6 6 6 6 6 5 5 5 5 5 5 5 4 4 4 4 4 4 4 4 4
11 11 11 10 10 10 10 10 9 9 9 9 8 8 8 8 8 7 7 7 7 6 6 6 5 5 5 5 5 5 4 4 4 4 4 4 4 4 3 3 3 3 3
10 10 10 10 9 9 9 9 8 8 8 8 7 7 7 7 7 7 6 6 6 6 5 5 5 5 4 4 4 4 4 4 3 3 3 3 3 3 3 3 3 3 3
9 9 9 9 8 8 8 8 8 7 7 7 7 6 6 6 6 6 5 5 5 5 5 4 4 4 4 4 4 3 3 3 3 3 2 2 2 2 2 2 2 2 2
8 8 8 8 8 7 7 7 7 6 6 6 6 5 5 5 5 5 5 4 4 4 4 4 4 4 3 3 3 3 3 2 2 2 2 2 2 2 1 1 1 1 1
7 7 7 7 7 6 6 6 6 5 5 5 5 4 4 4 4 4 4 4 4 3 3 3 3 3 3 3 2 2 2 2 2 1 1 1 1 1 1 1 1 1 1
7 7 6 6 6 6 5 5 5 5 4 4 4 4 4 4 3 3 3 3 3 3 3 2 2 2 2 2 2 1 1 1 1 1 1 1 1 0 0 0 0 0 -0
6 6 6 5 5 5 5 4 4 4 4 3 3 3 3 3 3 2 2 2 2 2 2 2 1 1 1 1 1 1 0 0 0 -0 -0 0 0 0 -0 -0 -0 -1 -1
5 5 5 5 4 4 4 3 3 3 3 3 2 2 2 2 2 2 2 2 1 1 1 1 1 1 1 0 0 0 -0 -0 -0 -0 -1 -1 -1 -0 -0 -1 -1 -1 -1
5 4 4 4 4 3 3 3 2 2 2 2 2 2 2 1 1 1 1 1 1 0 0 0 0 0 -0 -0 -0 -1 -1 -1 -1 -1 -1 -2 -2 -2 -1 -1 -1 -2 -2
Wind_Speed
8 9 9 10 10 10 9 7 6 6 6 6 6 6 6 7 8 10 10 12 12 11 10 9 8 8 8 7 7 6 6 6 5 5 4 4 4 3 2 2 1 1 1
12 10 8 9 10 11 11 9 8 6 6 5 5 6 7 7 8 9 11 13 14 14 12 11 10 10 9 9 8 8 8 8 8 7 7 6 6 6 5 4 3 3 2
14 11 8 7 10 12 11 8 7 5 4 3 3 4 5 6 7 9 11 12 14 15 15 14 12 11 11 10 10 9 9 10 10 10 10 9 9 8 7 7 7 6 5
16 12 7 7 11 11 8 5 3 3 3 3 3 3 3 4 6 9 10 12 13 13 15 15 14 13 12 11 11 11 11 11 11 11 12 12 12 11 11 10 9 8 8
15 12 8 8 10 7 5 4 3 3 3 3 3 3 3 3 6 8 8 11 13 13 14 14 15 15 13 12 12 12 12 12 12 13 13 14 14 14 14 13 12 11 10
14 12 8 8 9 5 4 4 3 3 3 3 3 3 4 5 5 5 7 9 10 12 13 13 12 13 14 13 13 13 13 12 12 13 13 14 14 15 15 15 14 14 13
13 11 6 6 6 5 5 5 3 3 3 2 1 3 4 5 5 5 5 4 5 8 9 10 10 10 10 10 11 11 12 12 12 12 12 12 12 13 14 15 15 15 15
12 10 7 6 5 5 5 5 4 3 2 3 3 1 3 4 3 3 3 3 3 4 4 6 7 7 7 6 7 8 9 9 10 11 11 11 12 12 13 14 14 14 14
10 10 9 7 5 6 6 6 6 6 4 4 3 4 3 4 3 3 2 1 1 1 1 2 3 5 5 5 5 6 8 8 9 10 11 11 11 12 13 14 14 14 13
8 9 9 8 6 5 5 5 5 4 5 4 3 4 4 3 3 3 2 1 1 1 1 1 1 2 3 4 4 5 6 7 8 9 10 11 11 12 12 11 11 11 11
6 8 8 7 5 5 5 5 4 5 4 4 4 3 4 4 5 4 5 3 1 1 1 1 1 1 2 2 2 3 4 5 6 7 9 9 10 10 10 9 9 8 8
4 5 6 6 5 4 5 5 5 5 5 5 4 3 3 3 4 5 6 4 4 2 1 0 0 1 1 1 1 1 2 3 4 6 7 8 9 9 10 9 8 7 5
4 5 4 4 3 4 4 4 4 4 5 5 5 4 4 4 3 3 4 4 4 2 1 1 1 1 1 1 1 1 1 2 3 5 6 7 8 8 8 7 6 5 3
4 4 4 4 3 3 3 3 3 4 3 4 4 4 4 4 3 3 3 3 4 3 3 3 0 0 0 1 2 2 1 2 3 4 5 6 6 7 6 6 5 3 2
4 4 4 4 3 3 3 3 2 3 3 3 3 3 3 2 2 3 3 3 4 5 4 3 2 1 1 2 2 2 1 2 2 3 3 4 4 5 5 5 5 5 3
4 5 4 3 3 2 2 2 2 2 2 1 1 1 1 1 1 2 2 2 3 4 4 2 2 1 1 2 2 2 2 2 3 2 3 3 4 4 4 4 4 4 4
5 5 4 4 3 3 2 2 1 2 2 1 1 1 1 1 1 1 1 1 2 3 4 1 1 1 1 1 2 2 2 3 3 3 2 3 3 3 3 3 3 3 3
5 5 4 4 3 3 2 2 2 2 2 2 1 1 1 0 0 1 1 1 2 2 2 3 2 1 1 1 1 1 1 2 2 2 2 2 2 3 3 3 2 2 3
5 4 5 4 3 3 2 2 2 2 2 2 2 2 1 1 1 0 0 1 1 1 1 2 1 1 1 1 1 1 1 2 2 2 2 2 3 3 3 2 2 2 2
5 4 4 4 3 3 3 2 2 2 2 2 1 2 1 1 1 1 0 1 1 0 0 1 1 1 1 1 1 0 1 1 1 2 3 4 4 3 3 2 2 2 2
5 4 4 3 3 3 2 3 2 3 3 2 2 2 1 1 2 1 1 1 1 1 1 1 1 1 1 1 1 1 1 1 1 1 2 3 3 3 4 4 3 3 3
4 4 4 4 3 2 3 4 4 3 3 3 2 1 1 1 2 2 2 2 2 2 2 2 2 2 2 2 2 2 1 0 2 1 1 2 1 2 3 4 4 4 3
4 4 3 3 2 2 3 4 4 4 3 3 3 2 1 1 2 2 3 4 4 3 1 3 3 3 3 4 4 2 2 2 2 1 1 2 1 2 3 5 5 4 3
4 4 4 4 3 3 4 4 5 4 3 2 3 3 3 2 2 3 2 2 2 2 2 1 2 3 3 3 4 4 3 1 1 1 1 1 2 2 3 6 5 2 2
4 3 3 4 4 3 5 5 5 3 2 2 2 3 3 3 4 4 3 2 1 1 2 2 2 2 2 3 4 3 3 1 0 1 0 1 1 2 2 2 4 3 3
4 4 3 4 4 4 6 6 6 3 3 2 2 2 4 5 5 5 4 4 3 2 0 1 3 3 3 2 2 3 4 3 1 2 1 1 0 1 3 2 3 4 4
Wind_Direction
170 171 176 178 182 185 187 192 203 219 238 247 240 223 212 205 203 201 203 205 208 211 214 215 215 217 221 222 221 220 219 216 216 215 215 217 213 208 200 189 167 107 71
176 176 179 185 191 196 199 200 208 218 226 224 227 221 213 212 213 210 214 215 218 221 222 225 227 228 230 232 231 229 227 228 229 228 227 226 228 229 228 223 224 227 233
179 180 180 187 197 201 203 204 212 214 219 217 223 225 221 223 225 226 226 224 225 228 228 230 231 232 234 237 240 240 237 234 235 234 232 232 233 234 235 232 232 235 238
180 178 179 189 197 196 194 191 190 192 207 209 220 235 237 240 240 237 233 229 227 229 232 232 233 235 236 240 245 247 246 243 240 239 238 237 236 236 238 237 236 238 240
179 176 181 188 187 184 186 186 188 184 200 218 232 244 247 243 245 244 238 235 232 230 231 233 233 235 239 245 251 257 259 256 249 245 243 242 240 239 239 240 240 241 241
183 180 181 185 180 175 185 189 193 192 196 208 238 257 257 253 249 244 241 240 235 233 231 230 233 237 240 245 252 261 266 267 261 256 252 250 248 246 243 242 243 244 242
184 183 181 181 179 182 190 188 183 197 210 178 209 296 292 271 259 255 246 239 237 234 229 228 230 231 236 243 251 261 270 273 273 269 261 258 256 252 249 246 245 245 243
183 183 179 182 180 180 185 187 179 181 202 175 173 227 302 315 302 272 253 231 230 226 220 223 219 219 223 229 244 255 267 278 284 282 275 268 264 261 256 254 251 248 245
181 178 180 181 183 185 193 194 186 186 204 211 192 185 211 250 294 310 304 261 232 212 231 231 221 219 221 227 244 257 265 274 283 289 289 284 278 273 267 261 256 252 246
179 181 181 184 186 190 196 199 196 197 194 214 221 221 216 204 229 287 307 321 323 257 255 237 234 237 228 227 240 259 270 274 279 287 290 293 292 285 278 273 269 262 250
180 181 180 181 185 191 197 195 191 200 203 210 213 216 230 233 226 238 265 270 293 269 230 212 223 233 230 227 247 267 273 283 288 289 291 296 301 305 299 289 286 279 259
178 180 180 185 190 193 197 198 197 201 209 213 216 216 216 224 222 225 245 247 247 238 228 234 234 234 226 221 257 296 309 317 318 313 310 313 316 315 317 305 300 294 271
185 189 178 182 187 191 189 188 193 204 208 212 217 224 227 233 221 219 240 252 246 238 218 225 287 257 217 158 106 48 3 354 349 333 327 328 332 335 333 328 315 309 282
179 172 162 163 171 178 183 184 195 205 200 210 218 220 227 233 225 220 225 231 253 244 223 220 126 46 117 118 106 97 43 15 5 355 350 345 350 356 1 4 359 356 354
150 143 143 149 155 162 171 173 191 198 188 203 214 215 226 232 227 232 232 223 234 253 248 201 192 135 125 106 94 92 45 24 13 360 1 8 6 2 9 18 25 31 32
135 134 134 137 139 132 125 141 171 175 179 203 202 190 219 238 235 240 235 238 234 240 250 186 178 152 133 114 96 85 61 43 28 24 27 18 12 15 18 15 15 12 11
132 134 138 135 135 133 132 137 153 152 167 183 174 173 218 220 232 265 251 235 240 236 245 214 123 133 133 124 86 73 66 47 24 20 17 13 18 14 9 2 6 9 8
129 128 125 121 127 135 140 150 159 153 167 181 178 164 216 191 250 298 277 253 249 243 225 229 182 155 139 147 119 86 38 22 0 359 357 360 354 343 336 333 354 9 7
124 117 118 124 135 141 142 146 149 149 152 159 163 165 183 170 232 300 272 263 267 262 223 197 175 117 102 109 96 30 10 356 344 351 347 345 336 329 323 322 337 339 341
128 126 126 134 139 133 131 129 130 136 133 125 122 135 143 162 192 198 221 274 274 239 143 152 147 131 127 109 109 143 289 314 321 356 355 343 335 336 330 316 317 324 323
138 137 132 128 130 136 147 145 147 149 145 134 114 111 120 142 169 168 164 192 169 177 163 164 165 145 162 157 192 189 214 302 303 347 338 334 338 340 333 327 310 299 292
137 136 142 148 152 160 167 167 159 154 156 158 158 148 131 104 100 88 92 106 136 169 189 182 193 200 205 196 170 163 146 103 276 302 352 306 338 305 307 308 303 293 283
144 142 147 147 154 175 178 176 167 149 156 170 175 173 171 145 94 75 70 57 43 50 149 179 194 209 199 194 173 169 177 193 228 247 16 281 323 290 298 309 307 285 267
158 163 167 163 163 192 190 182 165 143 150 171 180 179 176 183 177 146 119 82 44 22 30 109 181 203 206 189 179 174 172 159 292 296 159 248 303 290 308 316 319 294 288
168 172 171 171 180 196 196 189 165 144 163 182 190 187 183 195 206 183 152 143 93 355 38 80 126 155 162 165 153 126 128 112 262 262 168 200 291 312 309 306 319 331 326
175 172 176 182 189 199 202 200 185 164 178 190 198 212 210 208 212 198 174 173 195 226 198 34 36 40 43 60 133 148 157 155 183 240 230 155 283 353 318 301 305 310 310
Height
1559 1561 1564 1566 1567 1569 1571 1572 1573 1574 1575 1576 1577 1577 1577 1577 1577 1577 1577 1577 1577 1576 1576 1575 1574 1573 1572 1572 1571 1570 1569 1569 1568 1567 1566 1565 1565 1564 1563 1562 1561 1560 1559
1558 1560 1562 1564 1566 1568 1570 1571 1572 1573 1574 1575 1575 1575 1576 1576 1576 1576 1576 1575 1575 1575 1574 1574 1573 1572 1571 1570 1569 1569 1568 1567 1566 1566 1565 1564 1563 1563 1562 1561 1560 1559 1558
1557 1559 1561 1563 1565 1567 1568 1569 1570 1571 1572 1573 1573 1574 1574 1574 1574 1574 1573 1573 1573 1573 1572 1572 1571 1570 1569 1568 1568 1567 1566 1565 1564 1564 1563 1562 1561 1561 1560 1559 1558 1558 1557
1556 1557 1559 1561 1563 1564 1566 1567 1568 1569 1570 1570 1571 1571 1571 1571 1571 1571 1571 1570 1570 1570 1570 1569 1569 1568 1567 1566 1565 1565 1564 1563 1562 1561 1561 1560 1559 1558 1558 1557 1556 1555 1555
1554 1555 1557 1559 1560 1562 1563 1565 1566 1567 1568 1568 1568 1568 1568 1568 1568 1568 1567 1567 1567 1566 1566 1566 1565 1565 1564 1564 1563 1562 1561 1560 1559 1559 1558 1557 1556 1556 1555 1554 1554 1553 1552
1551 1553 1555 1556 1558 1559 1561 1562 1563 1564 1565 1565 1566 1565 1565 1565 1564 1564 1563 1563 1563 1562 1562 1562 1562 1562 1561 1561 1560 1559 1558 1557 1556 1555 1554 1554 1553 1552 1551 1551 1550 1550 1549
1548 1550 1552 1554 1555 1556 1558 1559 1560 1561 1562 1562 1562 1561 1561 1560 1560 1559 1559 1559 1559 1558 1558 1558 1558 1558 1558 1557 1557 1556 1555 1554 1553 1552 1551 1550 1549 1548 1547 1547 1546 1546 1545
1545 1546 1548 1550 1552 1553 1555 1556 1557 1557 1558 1559 1559 1558 1557 1556 1555 1555 1555 1555 1555 1555 1554 1554 1554 1554 1554 1553 1553 1552 1551 1550 1549 1548 1547 1546 1545 1544 1543 1542 1542 1541 1541
1541 1543 1545 1547 1549 1550 1551 1552 1553 1554 1554 1555 1556 1556 1555 1553 1552 1551 1551 1551 1551 1551 1551 1551 1550 1550 1549 1549 1548 1548 1547 1546 1545 1544 1543 1542 1541 1540 1539 1538 1537 1537 1536
1537 1539 1541 1543 1545 1546 1547 1548 1549 1550 1550 1550 1551 1551 1551 1551 1550 1548 1547 1547 1547 1547 1547 1546 1546 1545 1545 1544 1543 1543 1542 1541 1540 1539 1538 1537 1536 1535 1534 1533 1532 1532 1532
1533 1535 1537 1539 1540 1542 1543 1544 1544 1545 1545 1546 1546 1546 1546 1546 1546 1545 1543 1542 1542 1542 1542 1541 1541 1540 1539 1539 1538 1538 1537 1536 1535 1534 1533 1532 1531 1530 1529 1528 1528 1527 1527
1529 1531 1533 1535 1536 1537 1538 1539 1540 1540 1541 1541 1541 1541 1540 1540 1540 1540 1538 1537 1536 1537 1536 1536 1535 1535 1534 1533 1533 1532 1532 1531 1530 1529 1528 1527 1526 1525 1524 1524 1523 1522 1522
1525 1527 1529 1530 1532 1533 1534 1534 1535 1535 1535 1535 1535 1535 1535 1535 1535 1535 1534 1532 1531 1530 1530 1530 1529 1529 1529 1528 1527 1527 1526 1525 1525 1524 1523 1522 1521 1520 1519 1519 1518 1518 1518
1521 1523 1524 1526 1527 1528 1528 1529 1529 1529 1529 1530 1530 1530 1529 1529 1529 1528 1528 1528 1526 1525 1524 1524 1524 1524 1523 1523 1522 1522 1521 1520 1520 1519 1518 1517 1516 1515 1515 1514 1514 1513 1513
1517 1518 1520 1521 1522 1523 1523 1524 1524 1524 1524 1524 1524 1524 1524 1523 1523 1523 1522 1522 1522 1520 1518 1518 1519 1518 1518 1518 1517 1517 1516 1515 1515 1514 1513 1512 1511 1511 1510 1510 1509 1509 1509
1512 1513 1514 1516 1517 1517 1518 1518 1518 1518 1519 1518 1519 1518 1518 1518 1517 1517 1516 1516 1516 1515 1514 1513 1513 1513 1513 1513 1512 1512 1511 1511 1510 1509 1509 1507 1507 1506 1506 1506 1505 1505 1505
1508 1509 1510 1511 1512 1512 1513 1513 1513 1513 1513 1513 1513 1513 1513 1513 1512 1512 1511 1511 1511 1510 1509 1508 1508 1508 1508 1508 1508 1507 1507 1506 1506 1505 1504 1503 1503 1502 1502 1502 1501 1501 1501
1504 1505 1505 1506 1507 1508 1508 1508 1508 1508 1508 1508 1508 1508 1508 1507 1507 1507 1506 1506 1506 1505 1505 1504 1503 1503 1503 1503 1503 1503 1502 1502 1501 1500 1500 1499 1499 1498 1498 1498 1497 1497 1497
1499 1500 1501 1502 1503 1503 1503 1503 1503 1503 1503 1503 1503 1503 1503 1503 1502 1502 1501 1501 1501 1501 1500 1500 1499 1499 1499 1498 1498 1498 1498 1497 1497 1496 1496 1495 1495 1494 1494 1494 1494 1494 1494
1495 1496 1497 1498 1498 1498 1498 1498 1498 1498 1499 1499 1499 1498 1498 1498 1497 1497 1497 1496 1496 1496 1496 1495 1495 1494 1494 1494 1494 1494 1493 1493 1493 1492 1492 1491 1491 1491 1490 1490 1490 1490 1490
1491 1492 1493 1494 1494 1494 1494 1494 1494 1494 1494 1494 1494 1494 1494 1493 1493 1493 1493 1492 1492 1491 1491 1491 1490 1490 1490 1490 1490 1490 1490 1489 1489 1489 1488 1488 1487 1487 1487 1486 1486 1486 1486
1487 1488 1489 1490 1490 1490 1490 1489 1490 1490 1490 1490 1490 1490 1489 1489 1489 1489 1489 1488 1488 1488 1487 1487 1487 1487 1486 1486 1486 1486 1486 1485 1485 1486 1484 1484 1484 1484 1483 1483 1482 1482 1482
1484 1484 1485 1485 1486 1486 1486 1486 1485 1485 1486 1486 1486 1486 1486 1485 1485 1485 1485 1484 1484 1484 1484 1484 1483 1483 1483 1483 1483 1482 1482 1482 1482 1481 1481 1480 1481 1480 1480 1479 1479 1479 1478
1480 1481 1481 1481 1482 1482 1482 1482 1481 1481 1482 1482 1482 1482 1482 1482 1481 1481 1481 1480 1480 1480 1480 1479 1480 1479 1479 1479 1479 1479 1479 1479 1478 1478 1478 1477 1477 1477 1476 1476 1475 1475 1475
1476 1477 1477 1478 1478 1478 1478 1478 1478 1478 1478 1478 1478 1478 1478 1478 1478 1478 1477 1477 1477 1477 1477 1476 1476 1476 1476 1476 1476 1476 1475 1475 1475 1475 1474 1474 1473 1473 1472 1472 1472 1471 1471
1473 1473 1473 1474 1474 1474 1474 1474 1474 1474 1474 1475 1475 1475 1475 1475 1474 1474 1474 1474 1474 1474 1474 1473 1473 1473 1473 1473 1473 1473 1472 1472 1471 1471 1471 1471 1470 1470 1468 1468 1468 1468 1467